Volver al catálogo

DELTA 1 DEB

ActivoPO
NORAD 21546·DEBRIS·🇺🇸 United States

Lanzado Jun 12, 1975 desde Vandenberg Space Force Base

Loading…

Próximos Pases (próximas 24 horas)

TLE

ActualizadoSource: Space-Track

Época: Sep 14, 2026, 14:00 UTC

1 21546U 75052HA  26257.58387939  .00000857  00000-0  41512-2 0  9996
2 21546  99.5503 176.0001 0607035 145.0957 341.3342 12.28911732579522

Sigue DELTA 1 DEB en tiempo real con AllMySat

Download on the App Store